View from above orbital plane
|
View from above satellite
|
Ground track
|
The orbit data is extracted from the following two-line orbital elements,
1 8027U 75064B 21019.12178367 .00000118 00000-0 61862-4 0 9994
2 8027 81.2951 232.0478 0054974 166.9971 193.2632 14.07358397337016
Epoch (UTC): | 19 January 2021 02:55:22 |
Eccentricity: | 0.0054974 |
inclination: | 81.2951° |
perigee height: | 828 km |
apogee height: | 908 km |
right ascension of ascending node: | 232.0478° |
argument of perigee: | 166.9971° |
revolutions per day: | 14.07358397 |
mean anomaly at epoch: | 193.2632° |
orbit number at epoch: | 33701 |
The dashed part of the orbit path shows where the satellite is in the earth's shadow,
|
|